Home > Weather > Scottsdale > Past weeks

Flag for USA Past Weather in Scottsdale, Arizona, USA — Yesterday and Last 2 Weeks

Now
91 °F

Clear.


Feels Like: 89 °F
Forecast: 88 / 108 °F
Wind: No wind

Location: Scottsdale Airport

Current Time: Jul 23, 2016 at 4:15:34 AM

Latest Report: Jul 23, 2016 at 3:53 AM


Visibility: 10 mi

Pressure: 29.75 "Hg

Humidity: 28%

Dew Point: 53 °F

Location of ScottsdaleLocation

Past Weather in Scottsdale — Graph

°F

Scottsdale Temperature Yesterday

Maximum temperature yesterday: 110 °F (at 3:53 PM)
Minimum temperature yesterday: 91 °F (at 5:53 AM)
Average temperature yesterday: 100 °F

High & Low Weather Summary for the Past Weeks

 TemperatureHumidityPressure
High110 °F (Jul 22, 3:53 PM)69% (Jul 18, 4:53 AM)29.96 "Hg (Jul 18, 4:53 AM)
Low81 °F (Jul 12, 5:53 AM)6% (Jul 10, 5:53 PM)29.62 "Hg (Jul 10, 7:53 PM)
Average97 °F21%29.81 "Hg
* Reported Jul 8 2:53 AM — Jul 23 2:53 AM, Scottsdale, Weather by CustomWeather, © 2016

Note: Actual official high and low records may vary slightly from our data, if they occured in-between our weather recording intervals... More about our weather records

Advertising

Scottsdale Weather History for the Previous 24 Hours

Scroll right to see more
 ConditionsComfort  
Time TempWeatherWind HumidityBarometerVisibility
2:53 AM
Sat, Jul 23
92 °FClear.5 mph26%29.73 "Hg10 mi
1:53 AM94 °FClear.No wind23%29.75 "Hg10 mi
12:53 AM96 °FClear.6 mph22%29.76 "Hg10 mi
11:53 PM
Fri, Jul 22
97 °FClear.6 mph20%29.76 "Hg10 mi
10:53 PM99 °FClear.10 mph18%29.75 "Hg10 mi
9:53 PM100 °FClear.12 mph17%29.77 "Hg10 mi
8:53 PM102 °FClear.9 mph15%29.75 "Hg10 mi
7:53 PM103 °FClear.10 mph16%29.75 "Hg10 mi
6:53 PM103 °FSunny.17 mph17%29.76 "Hg10 mi
5:53 PM109 °FSunny.3 mph13%29.72 "Hg10 mi
4:53 PM110 °FSunny.7 mph14%29.72 "Hg10 mi
3:53 PM110 °FSunny.13 mph14%29.75 "Hg10 mi
2:53 PM108 °FSunny.3 mph16%29.78 "Hg10 mi
1:53 PM108 °FSunny.N/A16%29.80 "Hg10 mi
12:53 PM107 °FSunny.8 mph17%29.83 "Hg10 mi
11:53 AM105 °FSunny.6 mph18%29.86 "Hg10 mi
10:53 AM103 °FSunny.6 mph20%29.88 "Hg10 mi
9:53 AM99 °FSunny.5 mph22%29.89 "Hg10 mi
8:53 AM98 °FSunny.3 mph23%29.90 "Hg10 mi
7:53 AM95 °FSunny.6 mph28%29.90 "Hg10 mi
6:53 AM91 °FSunny.6 mph32%29.90 "Hg10 mi
5:53 AM91 °FPartly sunny.9 mph31%29.90 "Hg5 mi
4:53 AM92 °FClear.8 mph31%29.88 "Hg10 mi
Weather by CustomWeather, © 2016

See weather overviewHow to use our weather pages